Ouarzazate, Morocco

9:55 AM WEST on April 26, 2017 (GMT +0100)
Ouarzazate

Weather History for GMMZ - April, 2013

Change the Weather History Date:

Saturday, April 27, 2013

  Actual Average Record
Temperature  
Mean Temperature 68 °F -  
Max Temperature 83 °F 84 °F - ()
Min Temperature 53 °F 56 °F - ()
Cooling Degree Days 3    
Growing Degree Days 18 (Base 50)    
Moisture  
Dew Point 25 °F    
Average Humidity 18    
Maximum Humidity 29    
Minimum Humidity 4    
Precipitation  
Precipitation 0.00 in 0.01 in - ()
Sea Level Pressure  
Sea Level Pressure 29.83 in    
Wind  
Wind Speed 7 mph ()    
Max Wind Speed 23 mph    
Max Gust Speed 28 mph    
Visibility 9.3 miles    
Events      
T = Trace of Precipitation, MM = Missing Value Source: Averaged Metar Reports

Daily Weather History Graph

Daily Weather History Graph

Search for Another Location

Airport or City:

Trip Planner

Search our weather history database for the weather conditions in past years. The results will help you decide how hot, cold, wet, or windy it might be!

Date:

Astronomy

Apr. 27, 2013 Rise Set
Actual Time 5:47 AM WET 7:03 PM WET
Civil Twilight 5:21 AM WET 7:29 PM WET
Nautical Twilight 4:51 AM WET 7:59 PM WET
Astronomical Twilight 4:20 AM WET 8:30 PM WET
Moon 9:11 PM WET (4/27) 6:58 AM WET (4/27)
Length of Visible Light 14h 07m
Length of Day
13h 16m
Waning Gibbous, 96% of the Moon is Illuminated
Apr 27
Waning Gibbous
May 2
Last Quarter
May 10
New
May 18
First Quarter
May 25
Full

Hourly Weather History & Observations

Time (WET) Temp. Dew Point Humidity Pressure Visibility Wind Dir Wind Speed Gust Speed Precip Events Conditions
12:00 AM 63 °F 24 °F 12%  in 12 mi West 2.3 mph - -  
12:00 AM 64.4 °F 23.0 °F 21% 29.95 in - Variable 2.3 mph - N/A   Clear
1:00 AM 60.8 °F 23.0 °F 23% 29.92 in - Calm Calm - N/A   Clear
2:00 AM 60.8 °F 23.0 °F 23% 29.92 in - West 4.6 mph - N/A   Clear
3:00 AM 60 °F 24 °F 15%  in 12 mi WSW 9.2 mph - -  
4:00 AM 60.8 °F 23.0 °F 23% 29.89 in - SW 8.1 mph - N/A   Clear
5:00 AM 59.0 °F 23.0 °F 25% 29.89 in - SW 6.9 mph - N/A   Clear
6:00 AM 56 °F 23 °F 17%  in 12 mi Calm Calm - -  
6:00 AM 55.4 °F 23.0 °F 29% 29.92 in - Calm Calm - N/A   Clear
7:00 AM 59.0 °F 23.0 °F 25% 29.92 in - West 4.6 mph - N/A   Clear
9:00 AM 68 °F 28 °F 12%  in 12 mi Calm Calm - -  
9:00 AM 68.0 °F 28.4 °F 23% 29.92 in - Variable 1.2 mph - N/A   Clear
10:00 AM 71.6 °F 28.4 °F 20% 29.92 in - Calm Calm - N/A   Clear
11:00 AM 75.2 °F 32.0 °F 21% 29.89 in - SSE 4.6 mph - N/A   Clear
12:00 PM 78 °F 30 °F 9%  in 12 mi SSE 13.8 mph - -  
12:00 PM 78.8 °F 28.4 °F 16% 29.83 in - SSE 11.5 mph - N/A   Clear
2:00 PM 82.4 °F 26.6 °F 13% 29.74 in - South 15.0 mph - N/A   Clear
3:00 PM 83 °F 16 °F 4%  in 12 mi SSW 17.3 mph - -   Partly Cloudy
3:00 PM 82.4 °F 15.8 °F 8% 29.71 in 6.2 mi SW 16.1 mph 27.6 mph N/A   Scattered Clouds
4:00 PM 82.4 °F 14.0 °F 8% 29.71 in 6.2 mi SSW 13.8 mph - N/A   Scattered Clouds
5:00 PM 78.8 °F 26.6 °F 15% 29.71 in 6.2 mi WNW 19.6 mph - N/A   Scattered Clouds
6:00 PM 76 °F 26 °F 8%  in 12 mi WNW 23.0 mph - -   Partly Cloudy
6:00 PM 75.2 °F 30.2 °F 19% 29.71 in 6.2 mi WNW 23.0 mph - N/A   Scattered Clouds
7:00 PM 69.8 °F 32.0 °F 25% 29.74 in 6.2 mi NW 19.6 mph - N/A   Scattered Clouds
8:00 PM 66.2 °F 28.4 °F 24% 29.77 in 6.2 mi WNW 19.6 mph - N/A   Partly Cloudy
9:00 PM 65 °F 29 °F 15%  in 12 mi WNW 20.7 mph - -   Scattered Clouds
9:00 PM 64.4 °F 30.2 °F 28% 29.77 in 6.2 mi West 19.6 mph - N/A   Partly Cloudy
10:00 PM 64.4 °F 30.2 °F 28% 29.77 in - WNW 12.7 mph - N/A   Clear
11:00 PM 62.6 °F 26.6 °F 26% 29.77 in - West 12.7 mph - N/A   Clear